Regional Weather Roundup
Issued by NWS

Home | Current Version | Previous Version | Text Only | Print | Product List | Glossary On
Versions: 1 2 3 4 5 6 7 8 9 10 11 12 13 14 15 16 17 18 19 20 21 22 23 24 25 26 27
000
ASUS45 KREV 260310
RWRNV
NEVADA REGIONAL WEATHER ROUNDUP
NATIONAL WEATHER SERVICE RENO NV
800 PM PDT SAT MAR 25 2017

NOTE: "FAIR" INDICATES FEW OR NO CLOUDS BELOW 12,000 FEET WITH NO
SIGNIFICANT WEATHER AND/OR OBSTRUCTIONS TO VISIBILITY.

NVZ001-003-004-260400-
WESTERN NEVADA

CITY           SKY/WX    TMP DP  RH WIND       PRES   REMARKS
RENO           MOCLDY    49  32  52 W15       30.04R
CARSON CITY    FAIR      46  28  49 CALM      30.06R
MINDEN         FAIR      45  30  57 CALM      30.06R
FALLON         MOCLDY    50  24  36 N3        30.01R
LOVELOCK       MOCLDY    49  27  42 NW8       30.01R
HAWTHORNE      CLEAR     52  25  35 NW6       30.00S
$$

NVZ002-CAZ072-073-260400-
NORTHERN AND CENTRAL SIERRA

CITY           SKY/WX    TMP DP  RH WIND       PRES   REMARKS
S. LAKE TAHOE  MOCLDY    38  30  73 VRB3      30.08F
TRUCKEE        MOCLDY    36  32  87 CALM      30.09S
SQUAW VLY 8000   N/A     28  28 100 SW6         N/A
SUSANVILLE     CLEAR     45  32  61 NW7       30.07R
MAMMOTH LAKES  FAIR      38  27  64 W6        30.07S
BRIDGEPORT       N/A     38  25  59 CALM      30.04S
$$

NVZ030-031-036-260400-
NORTHERN NEVADA

CITY           SKY/WX    TMP DP  RH WIND       PRES   REMARKS
ELKO           CLOUDY    44  30  57 SW3       30.02R
WINNEMUCCA     MOCLDY    41  26  55 S7        30.01S
WENDOVER       CLOUDY    47  38  71 CALM      30.02R
$$

NVZ035-037-260400-
CENTRAL NEVADA

CITY           SKY/WX    TMP DP  RH WIND       PRES   REMARKS
ELY            CLOUDY    37  33  85 NW3       30.05R
EUREKA           N/A     38  29  70 S3        30.04R
$$

NVZ013-014-260400-
SOUTH CENTRAL NEVADA

CITY           SKY/WX    TMP DP  RH WIND       PRES   REMARKS
TONOPAH        CLEAR     48  32  53 N9        30.02R
$$

NVZ017-020-022-260400-
SOUTHERN NEVADA

CITY           SKY/WX    TMP DP  RH WIND       PRES   REMARKS
LAS VEGAS      PTCLDY    66  34  30 NE7       29.93R
N. LAS VEGAS   PTCLDY    64  36  35 E9        29.93R
NELLIS AFB     PTCLDY    64  37  37 NE7       29.92R
HENDERSON      MOCLDY    65  36  34 NE8       29.95R
MERCURY        CLEAR     55  46  71 NE3       29.95S
$$




USA.gov is the U.S. government's official web portal to all federal, state and local government web resources and services.